Location: Goettingen
(51.5300°N, 9.9433°E)
Time: 22:16:35
(UTC+02:00)

ISS - Pass Details

Date: 27 October 2020
Orbit: 418 x 420 km, 51.6° (Epoch: 20 October)

Event Time Altitude Azimuth Distance (km) Brightness Sun altitude
Exits shadow 05:54:41 13° 237° (WSW) 1,340 -1.7 -11.5°
Maximum altitude 05:57:35 57° 160° (SSE) 500 -3.2 -11.1°
Drops below altitude 10° 06:00:53 10° 81° (E) 1,500 0.4 -10.6°
Sets 06:03:01 0° 77° (ENE) 2,365 1.6 -10.3°
